| time (UTC) | temp F | wind direction | speed knots | gust knots | rain 1hr in | rain 24hr in | rain mn in | humidity % | barometer mb |
| 20260906233518 | 66 | 275 | 7.0 | 11.3 | 0.00 | 0.00 | 0.00 | 69 | 1013.4 |
| 20260906233035 | 66 | 297 | 7.8 | 11.3 | 0.00 | 0.00 | 0.00 | 68 | 1013.3 |
| 20260906232519 | 66 | 265 | 7.0 | 12.2 | 0.00 | 0.00 | 0.00 | 68 | 1013.4 |
| 20260906232018 | 66 | 285 | 7.8 | 12.2 | 0.00 | 0.00 | 0.00 | 68 | 1013.4 |
| 20260906231536 | 66 | 275 | 6.1 | 11.3 | 0.00 | 0.00 | 0.00 | 69 | 1013.5 |
| 20260906231024 | 66 | 257 | 6.1 | 12.2 | 0.00 | 0.00 | 0.00 | 69 | 1013.6 |
| 20260906230517 | 66 | 279 | 5.2 | 12.2 | 0.00 | 0.00 | 0.00 | 68 | 1013.7 |
| 20260906230039 | 66 | 279 | 4.3 | 12.2 | 0.00 | 0.00 | 0.00 | 68 | 1013.7 |
| 20260906225519 | 66 | 254 | 6.1 | 10.4 | 0.00 | 0.00 | 0.00 | 67 | 1013.7 |
| 20260906225018 | 66 | 258 | 5.2 | 9.6 | 0.00 | 0.00 | 0.00 | 68 | 1013.8 |
| 20260906224543 | 66 | 291 | 7.0 | 9.6 | 0.00 | 0.00 | 0.00 | 68 | 1013.8 |
| 20260906224019 | 65 | 261 | 5.2 | 9.6 | 0.00 | 0.00 | 0.00 | 68 | 1013.9 |
| 20260906223519 | 65 | 256 | 5.2 | 9.6 | 0.00 | 0.00 | 0.00 | 68 | 1014.0 |
| 20260906223046 | 65 | 258 | 4.3 | 8.7 | 0.00 | 0.00 | 0.00 | 68 | 1014.0 |
| 20260906222520 | 65 | 245 | 4.3 | 8.7 | 0.00 | 0.00 | 0.00 | 69 | 1014.2 |
| 20260906222020 | 65 | 250 | 4.3 | 9.6 | 0.00 | 0.00 | 0.00 | 69 | 1014.1 |
| 20260906221536 | 65 | 270 | 5.2 | 9.6 | 0.00 | 0.00 | 0.00 | 69 | 1014.1 |
| 20260906221019 | 65 | 275 | 7.0 | 9.6 | 0.00 | 0.00 | 0.00 | 69 | 1014.2 |
| 20260906220519 | 65 | 270 | 4.3 | 7.0 | 0.00 | 0.00 | 0.00 | 69 | 1014.1 |
| 20260906220047 | 65 | 222 | 3.5 | 7.8 | 0.00 | 0.00 | 0.00 | 69 | 1014.1 |
| 20260906215516 | 65 | 247 | 3.5 | 8.7 | 0.00 | 0.00 | 0.00 | 70 | 1014.1 |
| 20260906215018 | 65 | 237 | 3.5 | 8.7 | 0.00 | 0.00 | 0.00 | 70 | 1014.1 |
| 20260906214537 | 65 | 282 | 2.6 | 7.0 | 0.00 | 0.00 | 0.00 | 70 | 1014.0 |
| 20260906214018 | 65 | 321 | 3.5 | 8.7 | 0.00 | 0.00 | 0.00 | 71 | 1014.0 |
| 20260906213525 | 65 | 292 | 3.5 | 10.4 | 0.00 | 0.00 | 0.00 | 71 | 1014.1 |
| 20260906213041 | 65 | 261 | 2.6 | 7.8 | 0.00 | 0.00 | 0.00 | 71 | 1014.0 |
| 20260906212521 | 65 | 283 | 3.5 | 7.0 | 0.00 | 0.00 | 0.00 | 72 | 1014.0 |
| 20260906212020 | 64 | 270 | 2.6 | 7.0 | 0.00 | 0.00 | 0.00 | 73 | 1014.0 |
| 20260906211541 | 64 | 265 | 3.5 | 8.7 | 0.00 | 0.00 | 0.00 | 74 | 1014.1 |
| 20260906211019 | 64 | 295 | 4.3 | 8.7 | 0.00 | 0.00 | 0.00 | 74 | 1014.2 |
| 20260906210521 | 64 | 316 | 2.6 | 7.8 | 0.00 | 0.00 | 0.00 | 74 | 1014.2 |
| 20260906210042 | 63 | 322 | 5.2 | 8.7 | 0.00 | 0.00 | 0.00 | 75 | 1014.4 |
| 20260906205518 | 64 | 270 | 5.2 | 8.7 | 0.00 | 0.00 | 0.00 | 75 | 1014.4 |
| 20260906205015 | 63 | 258 | 3.5 | 7.8 | 0.00 | 0.00 | 0.00 | 76 | 1014.4 |
| 20260906204542 | 63 | 281 | 2.6 | 7.8 | 0.00 | 0.00 | 0.00 | 77 | 1014.5 |
| 20260906204017 | 62 | 298 | 3.5 | 7.8 | 0.00 | 0.00 | 0.00 | 78 | 1014.5 |
| 20260906203518 | 62 | 325 | 3.5 | 8.7 | 0.00 | 0.00 | 0.00 | 79 | 1014.4 |
| 20260906203040 | 62 | 349 | 4.3 | 7.8 | 0.00 | 0.00 | 0.00 | 79 | 1014.4 |
| 20260906202518 | 62 | 308 | 2.6 | 7.8 | 0.00 | 0.00 | 0.00 | 79 | 1014.4 |
| 20260906202019 | 61 | 270 | 3.5 | 7.8 | 0.00 | 0.00 | 0.00 | 79 | 1014.4 |
| 20260906201553 | 61 | 319 | 2.6 | 7.8 | 0.00 | 0.00 | 0.00 | 80 | 1014.5 |
| 20260906201018 | 61 | 302 | 4.3 | 7.0 | 0.00 | 0.00 | 0.00 | 80 | 1014.6 |
| 20260906200521 | 61 | 329 | 3.5 | 6.1 | 0.00 | 0.00 | 0.00 | 80 | 1014.7 |
| 20260906200043 | 61 | 348 | 2.6 | 5.2 | 0.00 | 0.00 | 0.00 | 80 | 1014.7 |
| 20260906195518 | 61 | 308 | 2.6 | 9.6 | 0.00 | 0.00 | 0.00 | 80 | 1014.7 |
| 20260906195020 | 61 | 308 | 2.6 | 9.6 | 0.00 | 0.00 | 0.00 | 80 | 1014.9 |
| 20260906194542 | 60 | 340 | 3.5 | 7.8 | 0.00 | 0.00 | 0.00 | 80 | 1014.9 |
| 20260906194019 | 60 | 333 | 3.5 | 7.8 | 0.00 | 0.00 | 0.00 | 81 | 1014.9 |
| 20260906193518 | 60 | 314 | 4.3 | 10.4 | 0.00 | 0.00 | 0.00 | 81 | 1014.9 |
| 20260906193045 | 60 | 309 | 5.2 | 10.4 | 0.00 | 0.00 | 0.00 | 81 | 1014.9 |
| 20260906192517 | 60 | 314 | 4.3 | 12.2 | 0.00 | 0.00 | 0.00 | 81 | 1014.9 |
| 20260906192017 | 60 | 323 | 4.3 | 12.2 | 0.00 | 0.00 | 0.00 | 81 | 1015.0 |
| 20260906191543 | 60 | 306 | 5.2 | 10.4 | 0.00 | 0.00 | 0.00 | 81 | 1015.0 |
| 20260906191019 | 60 | 308 | 4.3 | 9.6 | 0.00 | 0.00 | 0.00 | 81 | 1015.0 |
| 20260906190518 | 60 | 334 | 5.2 | 10.4 | 0.00 | 0.00 | 0.00 | 81 | 1015.0 |
| 20260906190058 | 60 | 337 | 5.2 | 10.4 | 0.00 | 0.00 | 0.00 | 82 | 1015.0 |
| 20260906185517 | 59 | 300 | 6.1 | 11.3 | 0.00 | 0.00 | 0.00 | 83 | 1015.1 |
| 20260906185023 | 59 | 329 | 7.0 | 13.0 | 0.00 | 0.00 | 0.00 | 83 | 1015.2 |
| 20260906184545 | 59 | 339 | 7.8 | 11.3 | 0.00 | 0.00 | 0.00 | 85 | 1015.0 |
| 20260906184017 | 59 | 347 | 7.0 | 11.3 | 0.00 | 0.00 | 0.00 | 87 | 1015.0 |
| 20260906183519 | 59 | 331 | 6.1 | 10.4 | 0.00 | 0.00 | 0.00 | 88 | 1015.2 |
| 20260906183054 | 59 | 292 | 6.1 | 9.6 | 0.00 | 0.00 | 0.00 | 87 | 1015.6 |
| 20260906182517 | 59 | 307 | 5.2 | 9.6 | 0.00 | 0.00 | 0.00 | 86 | 1015.6 |
| 20260906182017 | 59 | 304 | 6.1 | 10.4 | 0.00 | 0.00 | 0.00 | 85 | 1015.6 |
| 20260906181544 | 59 | 327 | 5.2 | 10.4 | 0.00 | 0.00 | 0.00 | 84 | 1015.6 |
| 20260906181021 | 59 | 261 | 5.2 | 11.3 | 0.00 | 0.00 | 0.00 | 83 | 1015.6 |
| 20260906180518 | 60 | 335 | 6.1 | 11.3 | 0.00 | 0.00 | 0.00 | 82 | 1015.5 |
| 20260906180046 | 60 | 352 | 7.0 | 10.4 | 0.00 | 0.00 | 0.00 | 82 | 1015.4 |
| 20260906175522 | 59 | 323 | 6.1 | 9.6 | 0.00 | 0.00 | 0.00 | 84 | 1015.4 |
| 20260906175019 | 58 | 347 | 6.1 | 9.6 | 0.00 | 0.00 | 0.00 | 84 | 1015.6 |
| 20260906174544 | 58 | 287 | 4.3 | 8.7 | 0.00 | 0.00 | 0.00 | 84 | 1015.8 |
| 20260906174020 | 58 | 257 | 6.1 | 11.3 | 0.00 | 0.00 | 0.00 | 84 | 1016.0 |
| 20260906173517 | 57 | 247 | 4.3 | 11.3 | 0.00 | 0.00 | 0.00 | 84 | 1016.1 |
| 20260906173048 | 57 | 235 | 5.2 | 9.6 | 0.00 | 0.00 | 0.00 | 84 | 1016.1 |
| 20260906172518 | 57 | 246 | 7.0 | 9.6 | 0.00 | 0.00 | 0.00 | 84 | 1016.2 |
| 20260906172016 | 57 | 254 | 6.1 | 11.3 | 0.00 | 0.00 | 0.00 | 84 | 1016.1 |
| 20260906171544 | 57 | 245 | 6.1 | 11.3 | 0.00 | 0.00 | 0.00 | 84 | 1016.0 |
| 20260906171018 | 56 | 258 | 7.8 | 11.3 | 0.00 | 0.00 | 0.00 | 85 | 1016.0 |
| 20260906170520 | 56 | 262 | 6.1 | 11.3 | 0.00 | 0.00 | 0.00 | 84 | 1016.1 |
| 20260906170046 | 56 | 265 | 6.1 | 11.3 | 0.00 | 0.00 | 0.00 | 84 | 1016.3 |
| 20260906165520 | 56 | 252 | 6.1 | 11.3 | 0.00 | 0.00 | 0.00 | 85 | 1016.2 |
| 20260906165018 | 56 | 233 | 6.1 | 11.3 | 0.00 | 0.00 | 0.00 | 85 | 1016.4 |
| 20260906164545 | 55 | 237 | 6.1 | 11.3 | 0.00 | 0.00 | 0.00 | 85 | 1016.5 |
| 20260906164020 | 55 | 232 | 5.2 | 9.6 | 0.00 | 0.00 | 0.00 | 86 | 1016.6 |
| 20260906163520 | 55 | 239 | 5.2 | 10.4 | 0.00 | 0.00 | 0.00 | 86 | 1016.7 |
| 20260906163044 | 55 | 230 | 6.1 | 9.6 | 0.00 | 0.00 | 0.00 | 86 | 1016.7 |
| 20260906162519 | 55 | 265 | 4.3 | 10.4 | 0.00 | 0.00 | 0.00 | 86 | 1016.8 |
| 20260906162016 | 55 | 230 | 6.1 | 10.4 | 0.00 | 0.00 | 0.00 | 86 | 1016.8 |
| 20260906161546 | 55 | 279 | 6.1 | 13.0 | 0.00 | 0.00 | 0.00 | 85 | 1016.7 |
| 20260906161020 | 55 | 235 | 6.1 | 13.0 | 0.00 | 0.00 | 0.00 | 85 | 1016.8 |
| 20260906160520 | 55 | 249 | 7.0 | 11.3 | 0.00 | 0.00 | 0.00 | 85 | 1016.8 |
| 20260906160047 | 55 | 265 | 6.1 | 12.2 | 0.00 | 0.00 | 0.00 | 86 | 1017.1 |
| 20260906155521 | 55 | 238 | 7.8 | 11.3 | 0.00 | 0.00 | 0.00 | 85 | 1017.0 |
| 20260906155020 | 55 | 231 | 7.8 | 16.5 | 0.00 | 0.00 | 0.00 | 85 | 1017.2 |
| 20260906154544 | 55 | 249 | 7.8 | 16.5 | 0.00 | 0.00 | 0.00 | 86 | 1017.1 |
| 20260906154019 | 55 | 262 | 6.1 | 14.8 | 0.00 | 0.00 | 0.00 | 86 | 1017.0 |
| 20260906153519 | 55 | 224 | 9.6 | 14.8 | 0.00 | 0.00 | 0.00 | 86 | 1016.8 |
| 20260906153047 | 55 | 270 | 7.0 | 14.8 | 0.00 | 0.00 | 0.00 | 86 | 1016.8 |
| 20260906152515 | 55 | 270 | 7.8 | 14.8 | 0.00 | 0.00 | 0.00 | 86 | 1016.8 |
| 20260906152019 | 55 | 219 | 8.7 | 13.0 | 0.00 | 0.00 | 0.00 | 86 | 1016.9 |
| 20260906151541 | 56 | 240 | 9.6 | 14.8 | 0.00 | 0.00 | 0.00 | 87 | 1016.8 |
| 20260906151023 | 56 | 216 | 11.3 | 14.8 | 0.00 | 0.00 | 0.00 | 87 | 1016.9 |
| 20260906150520 | 56 | 236 | 9.6 | 13.9 | 0.00 | 0.00 | 0.00 | 88 | 1016.9 |
| 20260906150044 | 56 | 219 | 11.3 | 13.9 | 0.00 | 0.00 | 0.00 | 87 | 1017.2 |
| 20260906145521 | 56 | 227 | 8.7 | 13.0 | 0.00 | 0.00 | 0.00 | 87 | 1017.2 |
| 20260906145025 | 57 | 196 | 7.8 | 13.0 | 0.00 | 0.00 | 0.00 | 86 | 1017.3 |
| 20260906144544 | 58 | 201 | 7.0 | 8.7 | 0.00 | 0.00 | 0.00 | 86 | 1017.4 |
| 20260906144016 | 58 | 210 | 5.2 | 7.0 | 0.00 | 0.00 | 0.00 | 85 | 1017.4 |
| 20260906143520 | 59 | 192 | 2.6 | 5.2 | 0.00 | 0.00 | 0.00 | 85 | 1017.4 |
| 20260906143048 | 59 | 4 | 0.9 | 2.6 | 0.00 | 0.00 | 0.00 | 85 | 1017.4 |
| 20260906142523 | 59 | 4 | 0.0 | 6.1 | 0.00 | 0.00 | 0.00 | 85 | 1017.2 |
| 20260906142022 | 59 | 4 | 3.5 | 7.0 | 0.00 | 0.00 | 0.00 | 85 | 1017.1 |
| 20260906141543 | 59 | 353 | 3.5 | 7.8 | 0.00 | 0.00 | 0.00 | 85 | 1017.0 |
| 20260906141018 | 59 | 2 | 4.3 | 8.7 | 0.00 | 0.00 | 0.00 | 84 | 1016.7 |
| 20260906140523 | 59 | 2 | 6.1 | 8.7 | 0.00 | 0.00 | 0.00 | 84 | 1016.7 |
| 20260906140048 | 59 | 25 | 2.6 | 7.8 | 0.00 | 0.00 | 0.00 | 85 | 1016.7 |
| 20260906135516 | 58 | 353 | 2.6 | 7.8 | 0.00 | 0.00 | 0.00 | 85 | 1016.7 |
| 20260906135018 | 58 | 349 | 3.5 | 7.0 | 0.00 | 0.00 | 0.00 | 85 | 1016.6 |
| 20260906134545 | 58 | 2 | 2.6 | 5.2 | 0.00 | 0.00 | 0.00 | 85 | 1016.7 |
| 20260906134024 | 58 | 308 | 2.6 | 7.8 | 0.00 | 0.00 | 0.00 | 85 | 1016.9 |
| 20260906133521 | 58 | 333 | 3.5 | 7.8 | 0.00 | 0.00 | 0.00 | 85 | 1017.1 |
| 20260906133100 | 58 | 317 | 2.6 | 8.7 | 0.00 | 0.00 | 0.00 | 85 | 1017.1 |
| 20260906132519 | 58 | 324 | 4.3 | 9.6 | 0.00 | 0.00 | 0.00 | 85 | 1016.9 |
| 20260906132017 | 57 | 318 | 3.5 | 9.6 | 0.00 | 0.00 | 0.00 | 85 | 1016.8 |
| 20260906131552 | 57 | 306 | 4.3 | 7.8 | 0.00 | 0.00 | 0.00 | 85 | 1016.8 |
| 20260906131019 | 57 | 312 | 3.5 | 6.1 | 0.00 | 0.00 | 0.00 | 85 | 1016.9 |
| 20260906130519 | 57 | 304 | 3.5 | 7.8 | 0.00 | 0.00 | 0.00 | 85 | 1017.0 |
| 20260906130051 | 57 | 314 | 4.3 | 7.8 | 0.00 | 0.00 | 0.00 | 86 | 1017.0 |
| 20260906125518 | 57 | 289 | 3.5 | 7.8 | 0.00 | 0.00 | 0.00 | 86 | 1017.2 |
| 20260906125019 | 57 | 309 | 3.5 | 7.8 | 0.00 | 0.00 | 0.00 | 86 | 1016.9 |
| 20260906124552 | 56 | 306 | 2.6 | 4.3 | 0.00 | 0.00 | 0.00 | 86 | 1016.9 |
| 20260906124018 | 56 | 279 | 1.7 | 4.3 | 0.00 | 0.00 | 0.00 | 86 | 1017.0 |
| 20260906123518 | 56 | 265 | 2.6 | 4.3 | 0.00 | 0.00 | 0.00 | 86 | 1017.1 |
| 20260906123047 | 56 | 270 | 1.7 | 4.3 | 0.00 | 0.00 | 0.00 | 86 | 1017.4 |
| 20260906122520 | 56 | 270 | 1.7 | 4.3 | 0.00 | 0.00 | 0.00 | 86 | 1017.4 |
| 20260906122021 | 56 | 270 | 1.7 | 5.2 | 0.00 | 0.00 | 0.00 | 86 | 1017.3 |
| 20260906121543 | 56 | 270 | 1.7 | 7.8 | 0.00 | 0.00 | 0.00 | 86 | 1017.2 |
| 20260906121019 | 56 | 290 | 3.5 | 7.8 | 0.00 | 0.00 | 0.00 | 86 | 1016.8 |
| 20260906120521 | 56 | 310 | 3.5 | 7.8 | 0.00 | 0.00 | 0.00 | 86 | 1016.1 |
| 20260906120050 | 56 | 312 | 3.5 | 7.0 | 0.00 | 0.00 | 0.00 | 86 | 1016.3 |
| 20260906115518 | 56 | 290 | 1.7 | 5.2 | 0.00 | 0.00 | 0.00 | 86 | 1016.6 |
| 20260906115022 | 56 | 287 | 1.7 | 6.1 | 0.00 | 0.00 | 0.00 | 86 | 1016.7 |
| 20260906114546 | 56 | 281 | 2.6 | 6.1 | 0.00 | 0.00 | 0.00 | 86 | 1016.6 |
| 20260906114018 | 56 | 310 | 1.7 | 5.2 | 0.00 | 0.00 | 0.00 | 86 | 1016.7 |
| 20260906113519 | 56 | 279 | 2.6 | 7.0 | 0.00 | 0.00 | 0.00 | 86 | 1016.8 |
| 20260906113045 | 56 | 279 | 4.3 | 7.0 | 0.00 | 0.00 | 0.00 | 86 | 1016.8 |
| 20260906112517 | 56 | 301 | 2.6 | 7.0 | 0.00 | 0.00 | 0.00 | 86 | 1016.8 |
| 20260906112019 | 56 | 279 | 4.3 | 7.8 | 0.00 | 0.00 | 0.00 | 86 | 1017.0 |
| 20260906111551 | 56 | 302 | 3.5 | 7.8 | 0.00 | 0.00 | 0.00 | 86 | 1017.0 |
| 20260906111016 | 56 | 318 | 4.3 | 7.8 | 0.00 | 0.00 | 0.00 | 86 | 1017.0 |
| 20260906110516 | 56 | 262 | 4.3 | 9.6 | 0.00 | 0.00 | 0.00 | 86 | 1017.1 |
| 20260906110055 | 56 | 279 | 4.3 | 9.6 | 0.00 | 0.00 | 0.00 | 86 | 1017.2 |
| 20260906105522 | 56 | 287 | 3.5 | 9.6 | 0.00 | 0.00 | 0.00 | 86 | 1017.1 |
| 20260906105018 | 56 | 265 | 6.1 | 9.6 | 0.00 | 0.00 | 0.00 | 86 | 1017.1 |
| 20260906104546 | 56 | 262 | 6.1 | 9.6 | 0.00 | 0.00 | 0.00 | 86 | 1017.2 |
| 20260906104019 | 56 | 260 | 5.2 | 8.7 | 0.00 | 0.00 | 0.00 | 85 | 1017.3 |
| 20260906103519 | 56 | 281 | 6.1 | 9.6 | 0.00 | 0.00 | 0.00 | 85 | 1017.3 |
| 20260906103044 | 56 | 300 | 5.2 | 10.4 | 0.00 | 0.00 | 0.00 | 85 | 1017.4 |
| 20260906102520 | 56 | 292 | 6.1 | 11.3 | 0.00 | 0.00 | 0.00 | 85 | 1017.4 |
| 20260906102017 | 56 | 287 | 5.2 | 11.3 | 0.00 | 0.00 | 0.00 | 85 | 1017.4 |
| 20260906101542 | 56 | 288 | 4.3 | 10.4 | 0.00 | 0.00 | 0.00 | 84 | 1017.3 |
| 20260906101019 | 56 | 270 | 5.2 | 10.4 | 0.00 | 0.00 | 0.00 | 84 | 1017.2 |
| 20260906100523 | 57 | 270 | 5.2 | 9.6 | 0.00 | 0.00 | 0.00 | 84 | 1017.1 |
| 20260906100049 | 57 | 279 | 6.1 | 10.4 | 0.00 | 0.00 | 0.00 | 84 | 1017.2 |
| 20260906095517 | 57 | 288 | 7.0 | 11.3 | 0.00 | 0.00 | 0.00 | 83 | 1017.1 |
| 20260906095018 | 57 | 284 | 7.8 | 11.3 | 0.00 | 0.00 | 0.00 | 83 | 1016.8 |
| 20260906094600 | 57 | 262 | 7.0 | 12.2 | 0.00 | 0.00 | 0.00 | 83 | 1016.9 |
| 20260906094019 | 57 | 309 | 7.0 | 11.3 | 0.00 | 0.00 | 0.00 | 83 | 1016.9 |
| 20260906093520 | 57 | 308 | 7.0 | 12.2 | 0.00 | 0.00 | 0.00 | 83 | 1016.8 |
| 20260906093056 | 57 | 310 | 7.0 | 12.2 | 0.00 | 0.00 | 0.00 | 83 | 1016.8 |
| 20260906092517 | 57 | 302 | 7.8 | 12.2 | 0.00 | 0.00 | 0.00 | 83 | 1016.7 |
| 20260906092020 | 57 | 297 | 7.8 | 11.3 | 0.00 | 0.00 | 0.00 | 83 | 1016.7 |
| 20260906091550 | 57 | 296 | 7.0 | 11.3 | 0.00 | 0.00 | 0.00 | 82 | 1016.7 |
| 20260906091016 | 57 | 262 | 6.1 | 11.3 | 0.00 | 0.00 | 0.00 | 82 | 1016.9 |
| 20260906090516 | 57 | 284 | 7.0 | 11.3 | 0.00 | 0.00 | 0.00 | 82 | 1017.1 |
| 20260906090114 | 57 | 265 | 6.1 | 9.6 | 0.00 | 0.00 | 0.00 | 82 | 1017.2 |
| 20260906085519 | 56 | 270 | 6.1 | 8.7 | 0.00 | 0.00 | 0.00 | 83 | 1017.2 |
| 20260906085019 | 56 | 280 | 5.2 | 9.6 | 0.00 | 0.00 | 0.00 | 83 | 1017.1 |
| 20260906084552 | 56 | 270 | 6.1 | 11.3 | 0.00 | 0.00 | 0.00 | 83 | 1017.2 |
| 20260906084018 | 56 | 270 | 5.2 | 11.3 | 0.00 | 0.00 | 0.00 | 83 | 1017.1 |
| 20260906083520 | 56 | 296 | 6.1 | 8.7 | 0.00 | 0.00 | 0.00 | 84 | 1017.2 |
| 20260906083053 | 56 | 262 | 6.1 | 8.7 | 0.00 | 0.00 | 0.00 | 84 | 1017.2 |
| 20260906082517 | 56 | 262 | 5.2 | 8.7 | 0.00 | 0.00 | 0.00 | 83 | 1017.4 |
| 20260906082019 | 56 | 270 | 5.2 | 8.7 | 0.00 | 0.00 | 0.00 | 83 | 1017.4 |
| 20260906081551 | 56 | 304 | 6.1 | 8.7 | 0.00 | 0.00 | 0.00 | 82 | 1017.6 |
| 20260906081021 | 56 | 289 | 5.2 | 8.7 | 0.00 | 0.00 | 0.00 | 82 | 1017.7 |
| 20260906080518 | 56 | 295 | 5.2 | 8.7 | 0.00 | 0.00 | 0.00 | 82 | 1017.9 |
| 20260906080055 | 56 | 309 | 5.2 | 8.7 | 0.00 | 0.00 | 0.00 | 82 | 1017.8 |
| 20260906075517 | 56 | 314 | 5.2 | 8.7 | 0.00 | 0.00 | 0.00 | 82 | 1017.9 |
| 20260906075018 | 56 | 254 | 4.3 | 7.8 | 0.00 | 0.00 | 0.00 | 83 | 1017.9 |
| 20260906074551 | 56 | 286 | 3.5 | 7.0 | 0.00 | 0.00 | 0.00 | 83 | 1018.0 |
| 20260906074021 | 56 | 261 | 4.3 | 7.8 | 0.00 | 0.00 | 0.00 | 83 | 1018.1 |
| 20260906073518 | 56 | 289 | 4.3 | 7.8 | 0.00 | 0.00 | 0.00 | 84 | 1018.0 |
| 20260906073045 | 55 | 270 | 3.5 | 5.2 | 0.00 | 0.00 | 0.00 | 84 | 1018.1 |
| 20260906072519 | 55 | 253 | 2.6 | 5.2 | 0.00 | 0.00 | 0.00 | 83 | 1018.3 |
| 20260906072018 | 55 | 270 | 2.6 | 5.2 | 0.00 | 0.00 | 0.00 | 83 | 1018.2 |
| 20260906071552 | 55 | 279 | 3.5 | 5.2 | 0.00 | 0.00 | 0.00 | 83 | 1018.2 |
| 20260906071021 | 55 | 258 | 3.5 | 4.3 | 0.00 | 0.00 | 0.00 | 84 | 1018.3 |
| 20260906070522 | 55 | 270 | 2.6 | 7.0 | 0.00 | 0.00 | 0.00 | 84 | 1018.3 |
| 20260906070045 | 55 | 279 | 2.6 | 5.2 | 0.00 | 0.00 | 0.00 | 83 | 1018.2 |
| 20260906065527 | 55 | 248 | 2.6 | 5.2 | 0.00 | 0.00 | 0.00 | 82 | 1018.2 |
| 20260906065023 | 55 | 256 | 2.6 | 5.2 | 0.00 | 0.00 | 0.00 | 82 | 1018.4 |
| 20260906064544 | 56 | 245 | 1.7 | 5.2 | 0.00 | 0.00 | 0.00 | 81 | 1018.2 |
| 20260906064022 | 56 | 252 | 3.5 | 8.7 | 0.00 | 0.00 | 0.00 | 80 | 1018.3 |
| 20260906063525 | 56 | 237 | 4.3 | 8.7 | 0.00 | 0.00 | 0.00 | 80 | 1018.3 |
| 20260906063048 | 56 | 270 | 5.2 | 8.7 | 0.00 | 0.00 | 0.00 | 80 | 1018.3 |
| 20260906062518 | 56 | 253 | 3.5 | 5.2 | 0.00 | 0.00 | 0.00 | 79 | 1018.6 |
| 20260906062024 | 57 | 252 | 2.6 | 5.2 | 0.00 | 0.00 | 0.00 | 78 | 1018.6 |
| 20260906061547 | 57 | 260 | 2.6 | 7.8 | 0.00 | 0.00 | 0.00 | 79 | 1018.6 |
| 20260906061019 | 57 | 242 | 3.5 | 7.8 | 0.00 | 0.00 | 0.00 | 79 | 1018.6 |
| 20260906060517 | 57 | 265 | 3.5 | 7.0 | 0.00 | 0.00 | 0.00 | 78 | 1018.6 |
| 20260906060037 | 57 | 282 | 3.5 | 7.0 | 0.00 | 0.00 | 0.00 | 78 | 1018.6 |
| 20260906055519 | 57 | 283 | 3.5 | 7.8 | 0.00 | 0.00 | 0.00 | 77 | 1018.6 |
| 20260906055020 | 57 | 265 | 5.2 | 8.7 | 0.00 | 0.00 | 0.00 | 77 | 1018.5 |
| 20260906054543 | 57 | 262 | 5.2 | 8.7 | 0.00 | 0.00 | 0.00 | 78 | 1018.4 |
| 20260906054018 | 57 | 300 | 4.3 | 8.7 | 0.00 | 0.00 | 0.00 | 76 | 1018.5 |
| 20260906053515 | 57 | 281 | 5.2 | 8.7 | 0.00 | 0.00 | 0.00 | 76 | 1018.4 |
| 20260906053049 | 57 | 265 | 7.0 | 8.7 | 0.00 | 0.00 | 0.00 | 76 | 1018.4 |
| 20260906052517 | 57 | 251 | 4.3 | 8.7 | 0.00 | 0.00 | 0.00 | 75 | 1018.3 |
| 20260906052020 | 57 | 275 | 3.5 | 7.0 | 0.00 | 0.00 | 0.00 | 75 | 1018.4 |
| 20260906051538 | 57 | 262 | 3.5 | 7.8 | 0.00 | 0.00 | 0.00 | 74 | 1018.3 |
| 20260906051019 | 58 | 257 | 3.5 | 7.8 | 0.00 | 0.00 | 0.00 | 74 | 1018.3 |
| 20260906050519 | 58 | 279 | 3.5 | 7.8 | 0.00 | 0.00 | 0.00 | 74 | 1018.2 |
| 20260906050038 | 58 | 275 | 4.3 | 8.7 | 0.00 | 0.00 | 0.00 | 74 | 1018.0 |
| 20260906045516 | 57 | 270 | 5.2 | 8.7 | 0.00 | 0.00 | 0.00 | 74 | 1018.0 |
| 20260906045018 | 57 | 275 | 5.2 | 7.8 | 0.00 | 0.00 | 0.00 | 74 | 1018.1 |
| 20260906044536 | 57 | 254 | 4.3 | 7.8 | 0.00 | 0.00 | 0.00 | 74 | 1018.1 |
| 20260906044018 | 57 | 260 | 4.3 | 7.8 | 0.00 | 0.00 | 0.00 | 73 | 1017.9 |
| 20260906043517 | 58 | 241 | 5.2 | 8.7 | 0.00 | 0.00 | 0.00 | 73 | 1017.9 |
| 20260906043037 | 58 | 287 | 3.5 | 8.7 | 0.00 | 0.00 | 0.00 | 72 | 1018.1 |
| 20260906042520 | 58 | 239 | 3.5 | 7.8 | 0.00 | 0.00 | 0.00 | 72 | 1018.0 |
| 20260906042019 | 58 | 240 | 2.6 | 9.6 | 0.00 | 0.00 | 0.00 | 72 | 1017.9 |
| 20260906041548 | 58 | 265 | 5.2 | 10.4 | 0.00 | 0.00 | 0.00 | 72 | 1017.5 |
| 20260906041018 | 58 | 275 | 7.0 | 10.4 | 0.00 | 0.00 | 0.00 | 72 | 1017.2 |
| 20260906040517 | 58 | 279 | 7.8 | 10.4 | 0.00 | 0.00 | 0.00 | 71 | 1017.2 |
| 20260906040043 | 58 | 253 | 6.1 | 9.6 | 0.00 | 0.00 | 0.00 | 71 | 1017.1 |
| 20260906035518 | 58 | 296 | 6.1 | 11.3 | 0.00 | 0.00 | 0.00 | 70 | 1016.9 |
| 20260906035016 | 58 | 300 | 6.1 | 11.3 | 0.00 | 0.00 | 0.00 | 70 | 1017.0 |
| 20260906034547 | 58 | 275 | 7.0 | 11.3 | 0.00 | 0.00 | 0.00 | 70 | 1016.9 |
| 20260906034018 | 58 | 281 | 7.0 | 9.6 | 0.00 | 0.00 | 0.00 | 70 | 1017.2 |
| 20260906033519 | 59 | 265 | 7.0 | 10.4 | 0.00 | 0.00 | 0.00 | 69 | 1017.2 |
| 20260906033046 | 59 | 265 | 5.2 | 10.4 | 0.00 | 0.00 | 0.00 | 69 | 1017.3 |
| 20260906032517 | 59 | 280 | 6.1 | 11.3 | 0.00 | 0.00 | 0.00 | 69 | 1017.4 |
| 20260906032019 | 59 | 289 | 7.0 | 11.3 | 0.00 | 0.00 | 0.00 | 69 | 1017.4 |
| 20260906031542 | 59 | 291 | 7.0 | 12.2 | 0.00 | 0.00 | 0.00 | 68 | 1017.3 |
| 20260906031016 | 59 | 281 | 7.8 | 10.4 | 0.00 | 0.00 | 0.00 | 68 | 1017.4 |
| 20260906030518 | 60 | 275 | 7.0 | 12.2 | 0.00 | 0.00 | 0.00 | 67 | 1017.4 |
| 20260906030041 | 60 | 304 | 7.8 | 13.0 | 0.00 | 0.00 | 0.00 | 66 | 1017.1 |
| 20260906025521 | 60 | 256 | 7.8 | 13.9 | 0.00 | 0.00 | 0.00 | 66 | 1017.1 |
| 20260906025020 | 61 | 311 | 8.7 | 14.8 | 0.00 | 0.00 | 0.00 | 66 | 1016.8 |
| 20260906024605 | 61 | 312 | 9.6 | 15.6 | 0.00 | 0.00 | 0.00 | 66 | 1016.3 |
| 20260906024017 | 61 | 309 | 8.7 | 15.6 | 0.00 | 0.00 | 0.00 | 65 | 1016.3 |
| 20260906023518 | 62 | 289 | 9.6 | 15.6 | 0.00 | 0.00 | 0.00 | 64 | 1016.2 |
| 20260906023034 | 62 | 310 | 9.6 | 18.2 | 0.00 | 0.00 | 0.00 | 63 | 1016.1 |
| 20260906022518 | 62 | 310 | 11.3 | 18.2 | 0.00 | 0.00 | 0.00 | 62 | 1015.9 |
| 20260906022021 | 63 | 321 | 8.7 | 15.6 | 0.00 | 0.00 | 0.00 | 61 | 1015.9 |
| 20260906021547 | 63 | 257 | 9.6 | 15.6 | 0.00 | 0.00 | 0.00 | 60 | 1015.9 |
| 20260906021016 | 63 | 299 | 7.8 | 13.0 | 0.00 | 0.00 | 0.00 | 60 | 1016.0 |
| 20260906020518 | 64 | 310 | 8.7 | 15.6 | 0.00 | 0.00 | 0.00 | 59 | 1015.9 |
| 20260906020045 | 64 | 289 | 9.6 | 15.6 | 0.00 | 0.00 | 0.00 | 58 | 1015.9 |
| 20260906015520 | 65 | 306 | 7.8 | 16.5 | 0.00 | 0.00 | 0.00 | 56 | 1015.9 |
| 20260906015019 | 65 | 324 | 10.4 | 16.5 | 0.00 | 0.00 | 0.00 | 55 | 1015.9 |
| 20260906014550 | 66 | 321 | 9.6 | 13.9 | 0.00 | 0.00 | 0.00 | 53 | 1015.7 |
| 20260906014020 | 67 | 300 | 9.6 | 13.9 | 0.00 | 0.00 | 0.00 | 52 | 1015.7 |
| 20260906013522 | 68 | 310 | 7.8 | 17.4 | 0.00 | 0.00 | 0.00 | 50 | 1015.6 |
| 20260906013047 | 69 | 335 | 10.4 | 17.4 | 0.00 | 0.00 | 0.00 | 48 | 1015.5 |
| 20260906012518 | 70 | 270 | 7.0 | 13.0 | 0.00 | 0.00 | 0.00 | 40 | 1015.8 |
| 20260906012022 | 71 | 329 | 7.8 | 12.2 | 0.00 | 0.00 | 0.00 | 39 | 1015.7 |
| 20260906011555 | 72 | 314 | 8.7 | 12.2 | 0.00 | 0.00 | 0.00 | 37 | 1015.7 |
| 20260906011020 | 73 | 315 | 7.0 | 12.2 | 0.00 | 0.00 | 0.00 | 37 | 1015.5 |
| 20260906010524 | 73 | 321 | 7.0 | 12.2 | 0.00 | 0.00 | 0.00 | 36 | 1015.7 |
| 20260906010115 | 73 | 310 | 7.8 | 14.8 | 0.00 | 0.00 | 0.00 | 36 | 1015.7 |
| 20260906005519 | 73 | 338 | 6.1 | 13.0 | 0.00 | 0.00 | 0.00 | 36 | 1015.7 |
| 20260906005021 | 74 | 316 | 6.1 | 11.3 | 0.00 | 0.00 | 0.00 | 35 | 1015.8 |
| 20260906004548 | 74 | 306 | 7.0 | 13.9 | 0.00 | 0.00 | 0.00 | 35 | 1015.8 |
| 20260906004018 | 74 | 312 | 6.1 | 13.9 | 0.00 | 0.00 | 0.00 | 35 | 1016.1 |
| 20260906003518 | 75 | 316 | 7.8 | 12.2 | 0.00 | 0.00 | 0.00 | 34 | 1016.0 |
| 20260906003047 | 75 | 317 | 6.1 | 12.2 | 0.00 | 0.00 | 0.00 | 34 | 1016.0 |
| 20260906002518 | 75 | 336 | 5.2 | 12.2 | 0.00 | 0.00 | 0.00 | 35 | 1016.0 |
| 20260906002018 | 75 | 319 | 7.0 | 11.3 | 0.00 | 0.00 | 0.00 | 34 | 1015.9 |
| 20260906001600 | 75 | 319 | 7.0 | 11.3 | 0.00 | 0.00 | 0.00 | 34 | 1016.0 |
| 20260906001022 | 75 | 338 | 5.2 | 12.2 | 0.00 | 0.00 | 0.00 | 35 | 1016.1 |
| 20260906000520 | 75 | 318 | 7.8 | 12.2 | 0.00 | 0.00 | 0.00 | 34 | 1016.1 |
| 20260906000046 | 76 | 323 | 4.3 | 13.0 | 0.00 | 0.00 | 0.00 | 33 | 1016.3 |
| 20260905235519 | 76 | 356 | 5.2 | 11.3 | 0.00 | 0.00 | 0.00 | 34 | 1016.1 |
| 20260905235022 | 76 | 314 | 3.5 | 10.4 | 0.00 | 0.00 | 0.00 | 34 | 1016.2 |
| 20260905234544 | 76 | 323 | 7.0 | 10.4 | 0.00 | 0.00 | 0.00 | 33 | 1016.1 |
| 20260905234018 | 75 | 336 | 4.3 | 11.3 | 0.00 | 0.00 | 0.00 | 35 | 1016.1 |